User: anonymous   Login
Location: Helsinki
(60.1699°N, 24.9384°E)
Time: 22:00:31
(UTC+03:00)
Language:

Transit 4A - Orbit

View from above orbital plane
View from above orbital plane
View from above satellite
View from above satellite

Ground track
Ground track

The orbit data is extracted from the following two-line orbital elements,

1 00116U 61015A   22275.56414171 -.00000012  00000-0  49861-4 0  9994
2 00116  66.8104 321.7030 0071952 146.7428 213.8204 13.91847361108290
Epoch (UTC): 02 October 2022 13:32:21
Eccentricity: 0.0071952
inclination: 66.8104°
perigee height: 869 km
apogee height: 974 km
right ascension of ascending node: 321.7030°
argument of perigee: 146.7428°
revolutions per day: 13.91847361
mean anomaly at epoch: 213.8204°
orbit number at epoch: 10829

The dashed part of the orbit path shows where the satellite is in the earth's shadow,  

DLR